Theta_e
311 309 309 310 310 311 310 309 310 311 311 313 312 313 313 314 314 312 314 315 316 317 317 318 317 317 317 316 315 315 313 312 310 309 307 305 306 305 303 302 301 299 299 299
311 310 310 309 309 310 311 312 312 312 311 310 311 312 313 312 313 314 313 314 314 315 317 317 317 317 316 316 316 314 314 313 311 310 309 307 307 307 305 303 302 300 299 298
311 311 311 310 310 311 310 311 312 312 311 309 308 311 310 309 312 313 314 314 314 314 316 317 317 317 316 315 315 315 314 313 312 310 308 307 305 304 303 303 301 300 299 298
308 310 311 311 311 311 312 310 311 311 311 312 310 313 311 309 310 310 312 314 314 315 316 317 317 316 315 316 315 314 314 313 311 310 309 308 308 307 307 305 303 301 299 298
309 311 310 310 312 310 313 310 310 310 309 309 311 311 312 310 311 310 311 313 316 317 317 317 317 316 315 315 314 313 313 312 311 310 309 308 307 307 306 305 303 300 299 298
309 310 309 309 309 308 309 311 310 307 308 313 311 311 312 310 311 311 311 314 315 316 317 317 316 315 315 314 313 313 312 312 311 309 308 307 307 307 306 305 303 302 299 298
307 307 308 310 311 309 310 310 310 310 310 313 309 310 313 310 310 309 310 313 316 317 317 317 314 314 314 314 313 313 312 311 311 310 308 308 308 307 307 306 305 303 301 299
308 311 307 307 310 309 309 310 311 309 312 313 306 310 311 309 310 313 314 314 315 316 316 316 315 314 314 313 313 312 312 311 310 310 309 308 307 307 307 306 305 304 302 300
308 309 308 307 308 309 308 309 310 309 295 305 310 310 311 307 308 307 309 312 311 312 313 313 313 314 314 313 313 312 312 311 310 310 308 308 307 307 307 306 305 303 301 299
309 310 309 307 307 307 308 307 310 309 310 308 311 310 312 311 311 308 307 307 311 311 311 311 312 313 313 312 312 311 311 311 310 309 308 308 308 307 306 305 305 304 302 299
309 311 311 308 307 310 306 308 308 308 312 315 315 314 313 311 308 306 307 310 311 312 314 312 311 312 311 310 310 310 310 310 309 308 308 307 308 307 305 304 304 303 301 299
310 312 314 313 310 306 306 309 310 312 313 312 313 314 313 313 311 311 311 309 312 312 313 310 311 310 310 310 310 310 310 309 310 309 308 307 306 306 305 304 304 302 301 299
311 314 317 315 312 311 312 311 309 310 310 312 314 314 313 312 311 311 306 309 311 311 312 311 310 310 311 312 311 311 311 312 311 309 308 307 306 305 305 305 304 302 300 298
314 315 316 317 316 312 311 310 310 310 311 312 311 311 310 311 311 311 311 311 311 311 311 312 312 312 311 311 312 312 311 309 309 309 308 307 306 306 306 304 303 301 299 297
312 315 314 314 314 314 314 314 313 313 310 311 311 311 310 310 311 312 311 311 310 310 310 310 310 311 311 312 311 311 311 311 311 310 308 308 307 306 304 303 303 301 299 297
303 309 311 312 312 311 312 312 312 312 312 313 313 313 312 311 312 312 312 312 312 312 312 312 312 311 311 311 312 312 311 312 311 310 309 309 307 306 305 303 302 301 298 296
302 305 306 307 309 310 312 313 312 312 311 312 314 313 312 311 312 311 310 308 303 302 302 303 305 308 310 311 311 310 311 311 310 310 308 308 307 305 303 302 300 299 297 295
301 301 302 305 305 307 308 310 311 311 311 311 310 304 303 303 305 307 302 299 299 299 299 299 298 300 303 305 308 309 309 308 309 309 308 307 306 305 302 300 299 297 296 295
299 300 305 306 308 309 310 306 304 307 307 300 300 299 297 296 300 299 296 295 295 295 296 295 295 296 297 299 303 304 306 307 307 307 307 306 305 303 301 299 298 297 295 293
295 297 303 304 306 307 300 299 295 298 307 294 297 296 296 295 295 296 294 294 293 293 294 294 294 294 294 295 298 301 304 304 305 305 304 302 301 301 300 299 297 296 294 293
285 286 291 295 299 301 294 293 294 304 296 292 294 293 293 293 293 293 293 293 293 294 293 293 293 294 295 293 296 299 301 302 301 301 300 300 298 297 296 296 295 294 292 290
289 289 292 292 291 295 292 291 289 291 292 294 292 291 290 290 290 290 291 291 291 291 291 291 292 292 292 292 294 301 301 301 300 303 299 297 297 295 294 293 292 291 290 289
288 291 291 291 291 291 290 290 289 292 289 289 289 289 287 286 287 287 288 288 288 289 289 290 289 290 290 291 292 297 300 300 300 301 302 302 298 294 292 291 291 289 288 287
286 289 287 287 288 289 289 289 289 289 288 287 287 285 284 284 284 284 283 283 283 284 284 285 286 287 289 290 290 291 293 294 295 297 299 301 300 300 299 294 291 288 288 286
288 288 287 287 289 289 289 289 288 286 285 285 285 284 282 281 281 281 281 281 281 281 281 281 283 284 284 286 288 288 290 291 292 293 294 295 297 298 298 298 295 294 290 288
289 289 289 288 288 289 289 288 285 284 282 280 280 280 281 280 279 278 278 279 278 279 278 278 277 278 282 283 285 286 288 290 292 292 292 292 292 292 292 289 286 283 284 285
Wind_Speed
7 4 10 21 17 15 2 6 7 8 6 5 10 17 19 30 23 25 35 43 46 47 53 46 45 45 44 44 45 47 45 44 43 43 42 42 43 42 42 39 36 35 33 32
2 11 17 7 6 9 12 17 21 19 19 7 16 23 17 13 24 31 30 39 47 49 51 53 54 48 43 42 46 50 49 47 44 45 44 44 43 43 42 40 39 38 36 34
15 10 13 12 9 11 13 14 19 17 6 6 11 22 15 12 31 39 42 45 49 49 52 53 51 46 41 40 42 49 50 49 46 45 46 46 44 42 43 44 43 42 39 37
9 13 14 7 8 15 16 13 15 14 3 11 3 26 6 7 14 13 27 39 41 45 50 52 51 45 40 39 39 44 50 49 46 46 46 48 48 46 46 47 46 43 40 39
9 3 5 10 20 10 13 5 6 3 5 5 7 8 4 11 11 13 17 31 41 41 45 46 46 39 34 37 37 40 48 49 47 47 47 47 48 45 45 45 45 43 41 40
12 4 6 9 5 8 1 3 4 4 2 12 12 11 1 6 10 6 10 32 37 37 40 46 44 31 30 33 35 41 48 49 48 48 47 47 46 46 46 46 44 42 43 41
3 7 5 7 3 3 4 5 4 4 1 12 9 9 23 6 6 11 13 27 32 35 39 46 39 23 27 34 37 41 46 50 48 47 46 47 47 46 45 45 44 43 42 44
2 14 9 5 11 9 11 11 7 8 12 19 4 10 11 13 13 23 30 33 39 45 44 41 33 21 27 32 37 40 44 48 49 48 48 48 48 47 45 45 44 43 43 42
5 14 2 5 3 9 4 7 16 2 1 1 7 14 13 7 8 8 16 31 36 41 39 31 25 25 26 27 33 37 42 47 47 48 48 50 50 50 48 46 43 43 42 41
5 12 7 2 2 3 7 4 2 2 3 7 9 6 14 16 14 10 10 16 27 29 28 31 27 26 23 25 30 33 39 44 45 47 49 50 51 51 51 50 47 43 42 41
2 2 18 1 7 12 1 4 4 3 5 14 18 15 28 16 9 7 11 20 18 25 30 22 21 20 21 22 23 27 32 41 45 47 48 49 51 53 53 53 50 48 45 41
5 6 10 25 14 3 4 12 12 12 13 11 17 19 27 32 25 19 26 30 31 29 32 23 19 16 19 19 22 24 27 35 38 43 49 49 50 50 54 54 52 51 48 44
6 3 6 3 10 13 13 22 16 17 18 25 22 21 28 24 24 23 17 30 38 38 34 24 16 17 26 28 29 30 35 38 41 43 46 49 50 50 51 52 51 51 49 46
16 18 17 21 21 11 8 11 22 22 17 24 23 25 23 32 28 31 26 33 35 35 35 39 46 51 37 33 35 36 39 39 38 42 45 48 49 49 49 51 51 50 49 46
9 22 22 24 30 29 30 30 27 26 27 25 26 30 25 28 32 31 26 32 23 31 32 35 39 43 45 41 37 34 35 41 44 45 47 50 48 49 49 50 49 48 48 46
7 7 12 20 22 25 28 29 32 34 36 36 36 34 28 31 39 35 38 38 31 29 29 37 44 42 46 45 47 48 47 46 47 50 50 50 51 49 50 49 48 48 46 45
11 9 11 23 19 18 21 26 33 33 33 28 30 34 26 27 26 26 30 21 24 25 27 27 29 35 40 46 45 42 41 40 45 47 49 50 52 50 49 47 46 46 46 44
19 21 12 18 24 31 24 15 24 31 32 32 22 17 18 19 30 16 23 31 30 32 38 38 38 32 29 29 31 35 35 36 37 40 44 46 47 47 46 44 44 44 45 44
22 20 9 12 20 22 12 7 9 9 2 13 13 15 18 35 31 16 37 36 31 33 38 42 41 37 36 32 30 24 20 25 31 37 39 40 42 42 43 43 42 42 43 44
16 12 13 18 22 25 5 13 24 13 11 21 13 16 18 26 14 14 42 40 40 36 38 43 43 41 37 37 34 30 28 20 20 26 33 35 34 37 39 39 40 40 41 42
4 5 6 12 16 9 12 15 25 7 11 26 17 23 21 13 13 34 38 36 34 31 36 39 41 39 38 35 35 33 27 22 18 19 24 25 27 31 34 36 37 38 39 41
5 4 9 4 4 10 28 21 6 12 19 12 15 17 21 25 34 34 34 36 37 36 35 38 43 43 37 35 33 31 27 23 16 16 19 18 20 26 30 32 34 35 39 40
4 5 3 3 6 23 25 13 27 10 13 14 21 29 26 26 26 27 29 30 34 33 34 34 38 43 43 36 29 29 23 25 24 19 21 21 17 22 27 30 32 36 38 41
4 12 3 5 7 14 27 29 18 20 24 28 26 28 27 23 27 31 34 37 36 39 41 42 41 42 42 36 36 35 30 27 31 30 28 28 31 27 27 29 33 37 40 44
8 2 6 10 16 24 21 23 21 22 21 20 27 30 29 23 35 32 38 44 41 41 40 37 35 42 45 41 40 44 40 35 35 36 37 35 34 35 35 36 37 38 42 45
17 18 12 15 23 20 24 28 24 19 18 26 21 28 36 34 37 36 38 42 42 46 47 47 48 47 46 42 41 43 35 38 36 37 41 42 38 39 40 40 40 40 44 45
Wind_Direction
185 135 207 222 212 234 206 228 243 256 247 225 230 236 248 265 269 259 264 265 262 260 266 264 261 259 257 251 247 243 238 236 229 225 225 226 229 229 230 231 233 233 234 236
160 214 225 235 210 222 243 257 262 270 265 214 260 259 249 250 262 261 255 263 263 264 270 268 266 266 261 256 251 242 237 236 231 228 228 230 232 232 234 235 235 235 235 235
221 225 216 218 230 241 229 233 253 256 301 249 289 271 251 244 250 262 263 257 263 263 267 268 268 269 265 252 246 243 238 235 230 227 225 228 231 233 233 233 234 234 234 234
238 241 217 189 217 216 257 227 254 261 283 274 126 294 196 231 244 243 253 261 257 264 266 267 268 267 260 257 250 241 236 233 229 228 228 228 230 229 231 233 234 234 233 235
242 209 190 222 234 181 253 167 233 218 215 337 182 266 161 203 250 247 253 254 267 273 272 272 269 266 261 252 248 242 233 231 228 229 231 230 232 234 236 237 236 236 236 236
241 196 189 211 194 206 95 59 37 65 122 265 203 210 97 179 213 241 252 258 265 269 272 274 276 263 252 242 239 238 230 228 227 229 231 232 232 235 235 236 237 236 237 237
312 227 213 181 225 141 132 92 298 320 9 255 191 216 251 274 216 215 238 258 263 270 267 270 274 254 230 230 231 232 229 226 225 229 231 231 232 235 237 238 239 238 236 235
261 290 176 179 201 193 207 189 182 206 253 270 109 249 265 220 238 241 249 264 270 268 271 273 267 246 246 231 233 233 228 226 227 230 231 231 231 234 236 239 239 241 242 241
209 268 166 198 163 153 175 177 233 317 108 5 248 275 287 229 269 310 282 285 275 275 277 272 254 240 244 231 232 235 232 230 230 234 232 232 232 234 235 238 239 241 243 243
279 268 230 152 123 275 186 165 115 184 206 248 268 250 260 284 285 290 295 304 320 322 305 274 251 241 235 237 236 236 235 238 238 237 236 236 237 238 238 239 240 240 244 243
76 325 270 167 211 235 184 247 229 184 197 246 261 264 278 278 274 261 298 299 323 327 317 306 264 248 244 241 245 242 241 241 239 241 241 241 242 242 242 243 244 243 244 245
170 176 238 263 261 301 271 265 242 237 246 235 254 257 263 269 270 272 288 291 295 309 311 285 262 251 251 255 252 255 253 247 247 244 243 244 245 246 246 246 246 246 245 243
182 220 267 261 289 251 233 247 241 255 258 251 254 253 257 269 271 264 245 262 282 292 294 287 271 268 285 278 267 264 265 259 252 244 245 245 247 248 248 248 248 247 245 242
245 249 239 254 264 279 267 224 238 242 255 254 247 260 262 271 265 271 266 269 274 276 280 278 281 288 292 285 273 280 268 255 259 255 253 251 250 251 250 248 247 246 245 240
244 241 235 244 251 254 257 265 259 252 247 250 254 251 248 256 270 276 281 285 276 282 278 280 282 281 284 279 277 279 273 276 271 261 255 252 253 252 249 247 247 245 243 241
313 287 297 283 272 257 250 248 252 261 260 260 261 260 261 260 265 276 279 282 287 280 278 280 276 272 272 273 278 276 273 274 269 260 257 255 251 251 248 246 243 241 239 236
268 273 283 279 288 297 278 259 259 258 261 257 259 257 267 268 263 270 295 0 27 8 4 353 324 303 293 284 283 279 280 278 270 265 258 251 250 249 247 244 240 237 235 232
253 265 258 273 274 269 273 240 239 251 258 266 289 4 5 344 319 342 17 14 357 345 348 347 349 352 343 314 288 279 273 269 267 264 259 254 250 248 244 240 237 235 232 229
230 244 266 257 259 279 284 7 349 337 55 27 360 6 1 354 333 54 8 352 338 334 330 331 335 338 341 339 341 318 294 282 269 264 259 255 249 244 241 236 233 231 228 225
315 296 270 284 281 274 44 4 319 296 220 360 346 2 360 356 345 327 330 326 326 329 331 326 327 330 333 337 337 335 334 312 291 272 261 252 246 244 241 237 233 230 228 228
335 328 271 278 275 275 17 5 341 280 329 325 331 345 339 338 318 310 317 319 322 323 321 321 319 319 322 329 328 326 322 331 324 299 279 267 256 246 241 237 232 229 224 222
285 285 300 327 309 252 4 344 351 289 312 307 333 323 323 319 311 310 306 308 310 312 317 318 315 316 316 316 321 319 319 314 315 316 302 278 267 255 245 237 233 226 224 221
269 199 234 195 255 294 306 297 305 297 325 332 321 317 320 313 306 310 310 310 309 309 314 311 309 310 313 313 309 305 313 310 300 288 289 294 284 263 251 242 234 226 224 223
269 258 220 297 259 271 290 294 279 311 316 310 307 309 315 307 310 313 312 308 307 313 314 312 310 308 307 306 305 298 299 296 294 282 275 274 276 272 257 246 239 235 230 225
234 275 241 268 280 280 282 294 299 307 299 295 303 306 313 310 311 313 311 313 312 310 309 303 299 297 295 296 300 297 294 290 288 284 274 265 258 252 248 245 245 242 239 235
244 250 257 262 274 288 287 295 308 297 301 314 306 302 309 310 308 309 306 307 306 306 306 304 303 300 298 298 288 285 294 293 288 280 276 266 257 252 245 239 235 231 231 228